RADUGA 21 [-]

Last updated on Tue Jun 27 2023 00:03:02 GMT+0000 (Coordinated Universal Time)

1 18631U 87100A 23177.40757448 -.00000234 00000+0 00000+0 0 9992 2 18631 12.8661 333.3934 0004457 141.5164 223.4849 1.00352238130184
UTC large
Height (km)
Speed (km/s)
/
Latitude / Longitude
Inclination (degrees)
Orbital Period (minutes)
Azimuth
Elevation
Range (km)
Doppler Factor

Next 0 passes for location: London (51.5072 / 0.1276)

Sorry there are no passes over London.